Wind_Speed
25 32 29 28 31 33 30 27 22 20 19 18 19 25 26 23 20 19 18 19 17 18 24 28 25 20 16 14 14 15 16 13 10 9 7 8 8 11 11 10 8 7 9
22 28 27 27 30 27 27 29 23 19 18 22 26 25 21 19 19 18 19 24 27 26 26 23 19 17 18 16 13 11 10 9 7 6 4 6 12 13 10 9 9 9 9
19 22 27 20 24 20 22 14 17 21 18 20 21 21 20 20 15 16 28 31 29 27 23 21 20 19 17 15 11 10 9 6 4 3 7 13 14 12 12 11 14 13 13
14 17 21 18 21 19 14 12 11 8 10 7 9 10 13 14 15 21 31 26 20 21 19 16 14 13 12 10 7 5 6 6 4 7 10 12 9 11 13 14 14 14 16
9 12 15 19 15 15 17 14 10 5 5 10 6 5 7 10 14 18 22 21 12 14 16 15 12 11 9 5 3 1 3 8 10 12 12 10 11 11 13 14 15 15 18
7 6 10 13 14 9 11 8 11 9 13 3 6 9 11 11 12 12 13 13 10 11 11 12 10 7 8 5 4 5 8 10 11 12 13 15 14 13 14 14 16 18 21
7 5 5 6 9 12 8 9 6 5 11 11 11 11 10 12 11 13 15 12 12 10 9 11 10 7 7 7 9 11 12 12 15 17 19 20 15 13 14 16 19 22 25
8 8 4 4 4 7 10 9 10 6 3 4 6 7 7 10 11 10 11 12 14 12 10 9 9 10 10 11 12 12 13 17 16 15 12 12 14 14 17 19 23 26 28
11 10 9 7 4 1 4 7 10 8 6 6 6 4 5 6 7 6 12 14 14 15 12 6 7 8 10 11 12 14 11 14 16 14 12 13 15 17 20 24 27 30 33
15 13 12 11 10 5 3 1 5 8 9 9 10 9 7 5 11 11 12 10 11 10 9 5 5 11 12 14 16 13 11 12 12 13 15 17 20 24 27 30 33 36 37
18 17 15 13 13 11 7 5 4 4 5 7 8 8 7 8 10 8 11 10 8 8 8 7 5 3 3 4 6 9 11 14 17 20 22 23 26 29 32 34 35 36 38
22 21 18 17 16 16 14 10 9 8 7 7 6 5 4 3 4 6 6 6 5 5 4 3 3 4 6 8 11 14 16 18 21 23 25 27 29 32 35 36 38 39 40
26 25 22 19 20 19 18 16 15 12 11 11 10 9 8 7 6 5 4 4 5 6 6 7 8 9 10 12 15 18 18 19 22 25 28 32 35 37 39 40 42 42 42
29 27 25 22 21 21 20 19 17 16 14 13 13 12 11 11 10 10 9 8 8 9 9 11 12 14 16 17 16 18 21 24 26 30 33 37 40 40 42 43 41 40 42
31 29 28 25 23 22 23 23 21 21 17 15 14 14 15 14 13 12 13 13 13 14 15 16 17 18 17 18 21 25 25 26 30 33 35 37 39 43 43 42 41 42 45
33 31 29 28 27 25 26 27 25 23 22 20 19 17 17 17 17 17 16 17 17 18 16 16 17 18 20 22 22 22 25 29 32 35 38 43 44 43 43 45 46 47 48
36 34 32 31 31 29 28 28 26 26 27 24 22 22 21 21 21 20 19 18 18 18 18 19 20 21 22 20 22 25 27 29 34 36 38 38 40 43 43 45 47 49 51
40 37 34 33 32 31 30 28 27 27 26 25 24 23 24 25 24 23 21 21 21 21 20 19 19 18 20 22 24 27 29 31 32 35 38 40 39 43 45 49 52 54 57
41 39 37 36 33 32 31 29 26 24 23 25 27 27 27 25 26 25 24 23 24 23 21 19 20 22 23 23 25 27 30 33 34 37 39 42 45 46 51 55 58 62 63
44 42 41 39 38 34 32 32 30 28 27 28 30 27 27 27 28 27 26 26 26 23 22 23 24 24 24 25 25 28 31 34 37 39 41 44 47 52 56 60 64 65 63
46 44 42 41 39 37 36 34 33 33 31 30 30 29 29 29 31 31 30 28 26 25 27 27 26 26 27 27 29 31 32 34 39 43 47 49 52 56 58 62 65 64 59
50 49 45 42 41 39 37 36 35 34 33 33 33 33 33 33 32 31 30 30 29 30 30 30 29 29 28 29 31 32 35 38 41 45 48 51 54 56 60 62 61 59 59
53 51 49 46 44 43 42 41 40 37 34 34 33 33 33 33 33 32 30 31 33 33 34 32 31 31 31 31 33 35 38 39 43 46 49 52 53 55 58 59 58 60 60
52 52 51 51 48 45 45 45 43 41 39 37 37 38 35 35 35 33 32 33 35 36 33 32 33 35 33 33 35 38 41 40 42 46 49 51 53 55 57 56 58 61 62
46 49 52 50 47 46 46 47 47 45 43 42 41 39 38 37 35 34 35 36 37 36 34 34 35 35 35 34 36 39 40 40 43 47 48 50 53 54 56 57 59 62 62
44 43 42 43 44 44 42 41 45 47 47 46 44 41 38 37 35 37 37 38 37 36 37 37 38 36 35 35 37 41 42 43 45 47 49 49 51 54 55 56 60 61 59
Wind_Direction
354 5 5 21 25 32 53 62 74 96 134 144 133 116 119 127 139 153 152 144 145 147 136 137 140 145 148 140 150 163 160 153 159 179 197 220 252 280 274 254 249 242 244
351 8 11 29 38 60 89 92 103 120 121 119 121 120 120 124 132 134 139 139 137 147 138 135 135 141 142 138 142 142 146 150 160 179 224 270 284 283 251 249 234 242 240
344 10 14 38 50 63 87 88 80 89 92 103 113 108 118 120 123 133 136 133 134 134 137 140 137 133 138 141 138 128 138 138 190 225 270 285 285 266 249 243 236 245 252
338 7 18 30 55 74 91 86 111 111 104 83 95 100 99 99 112 139 140 135 136 140 134 125 125 132 141 138 129 134 163 187 226 259 293 305 296 258 253 248 243 249 263
322 1 16 22 58 64 88 84 106 113 107 138 168 108 103 124 122 137 153 156 155 161 153 152 149 150 142 141 127 120 231 235 256 278 303 295 281 267 268 259 256 263 276
295 343 5 24 29 92 99 101 127 106 81 83 110 131 136 136 144 135 149 162 155 162 171 175 173 183 196 213 238 271 275 279 276 291 297 306 294 281 281 270 269 274 277
270 278 341 12 24 38 116 129 117 156 149 142 131 158 134 127 149 166 174 178 175 170 182 193 200 204 219 242 262 279 287 289 291 289 285 289 285 284 282 277 278 280 283
252 251 264 304 7 22 41 112 146 140 168 148 174 186 166 152 144 143 153 158 151 143 142 172 200 215 234 251 269 280 293 301 296 297 297 301 290 291 295 292 289 291 292
240 241 232 251 251 355 32 64 93 135 198 238 241 198 186 187 190 179 175 162 158 166 173 181 226 244 249 258 268 284 283 295 297 297 297 298 299 301 298 297 297 296 296
233 235 232 231 245 227 218 169 108 114 115 108 103 100 104 195 210 183 181 188 197 194 215 225 273 281 273 266 269 276 274 289 294 305 308 311 310 307 304 302 299 299 299
228 232 231 226 234 239 236 238 212 183 153 148 144 136 130 126 110 151 192 190 196 219 226 230 214 254 263 283 288 289 298 303 307 308 307 306 304 302 301 301 301 301 301
224 230 227 233 227 232 232 232 234 234 232 228 216 196 184 168 139 143 145 147 157 181 200 226 271 295 305 306 303 304 307 307 305 302 302 305 306 307 307 306 305 305 304
223 227 229 230 233 229 233 233 238 249 251 251 252 251 252 252 254 254 251 247 247 249 259 275 287 295 297 292 288 289 291 294 298 305 310 312 312 310 308 308 308 308 308
225 224 228 229 232 233 232 235 240 248 256 258 256 262 263 261 263 267 267 269 274 277 277 273 273 275 276 277 285 294 301 307 315 319 318 317 314 312 312 310 310 312 311
227 227 227 226 226 230 233 233 237 240 245 255 256 259 263 266 266 264 262 260 258 260 262 267 274 284 292 297 305 311 314 317 316 313 314 317 319 320 316 313 310 311 313
226 225 225 223 225 226 232 233 234 239 241 241 242 248 252 259 267 270 266 270 271 274 279 282 285 288 291 296 302 309 311 310 314 318 319 321 321 318 314 312 315 318 316
225 224 222 222 226 228 229 235 239 241 246 250 256 258 255 255 252 249 255 261 263 264 269 275 282 289 297 299 300 304 307 312 318 319 319 318 317 314 314 314 313 310 312
223 223 221 223 227 228 230 230 237 241 246 251 255 259 263 259 249 245 247 255 263 269 272 277 283 287 291 294 296 303 311 313 313 316 315 314 315 317 314 312 312 312 314
221 223 223 224 227 230 234 233 233 235 236 241 247 253 256 252 248 243 248 255 259 266 273 278 281 284 288 294 301 306 305 308 313 313 315 317 317 313 312 313 314 317 318
218 221 224 223 225 226 231 235 237 236 239 247 250 252 253 251 250 253 253 256 261 266 270 270 273 279 285 293 295 297 304 310 312 314 316 316 315 313 314 315 316 316 316
216 220 222 223 227 228 230 233 238 241 241 243 250 255 261 260 259 263 263 261 261 264 267 271 277 280 284 288 293 297 303 309 312 313 314 314 313 312 312 312 314 316 317
216 218 220 223 226 228 233 234 234 238 242 247 252 255 258 263 263 263 263 263 264 268 270 275 276 279 283 288 293 296 303 311 313 312 315 314 313 312 312 313 316 318 318
218 220 222 224 227 228 232 235 237 240 244 249 254 257 258 259 260 260 261 262 267 273 274 276 278 282 284 288 291 297 305 312 314 312 313 313 314 314 313 315 317 318 318
225 227 228 229 227 229 234 237 240 244 246 249 251 255 257 256 258 260 260 262 269 274 275 277 282 286 285 287 292 298 304 310 310 311 311 313 313 314 314 316 317 318 319
226 231 232 232 233 237 239 242 242 242 242 244 246 248 252 253 254 255 258 263 269 272 275 279 283 287 284 287 294 299 303 305 309 310 310 311 312 314 314 317 318 319 320
238 234 233 234 236 238 240 243 245 245 246 246 247 247 249 248 247 252 258 264 267 270 276 281 283 283 282 288 296 300 301 305 309 309 308 310 311 313 316 317 318 319 322
Height
5684 5677 5670 5665 5656 5648 5640 5636 5635 5635 5636 5636 5639 5641 5642 5644 5647 5649 5650 5651 5653 5658 5662 5668 5673 5677 5680 5684 5689 5693 5697 5701 5704 5709 5711 5713 5713 5714 5715 5714 5714 5716 5717
5686 5680 5673 5670 5662 5659 5655 5652 5650 5648 5648 5648 5648 5649 5649 5650 5651 5652 5654 5656 5661 5667 5670 5672 5676 5680 5684 5688 5692 5696 5700 5703 5707 5709 5711 5712 5713 5713 5712 5712 5714 5714 5714
5687 5683 5677 5674 5669 5666 5665 5662 5660 5659 5656 5657 5656 5656 5656 5657 5656 5657 5659 5663 5668 5672 5676 5679 5682 5685 5689 5693 5697 5700 5702 5704 5707 5708 5710 5711 5710 5710 5710 5710 5712 5711 5710
5688 5684 5680 5677 5674 5670 5669 5667 5664 5664 5663 5662 5662 5662 5662 5661 5663 5663 5666 5669 5674 5677 5680 5683 5686 5689 5692 5696 5699 5701 5703 5706 5707 5708 5709 5708 5707 5707 5707 5707 5708 5707 5708
5688 5685 5683 5679 5677 5674 5671 5671 5669 5667 5666 5666 5666 5666 5667 5668 5669 5670 5672 5675 5678 5681 5684 5687 5690 5693 5696 5698 5700 5702 5703 5705 5706 5707 5707 5706 5706 5705 5705 5705 5704 5703 5703
5688 5685 5684 5681 5679 5678 5674 5672 5674 5674 5672 5670 5671 5671 5671 5671 5673 5675 5677 5679 5682 5684 5687 5689 5692 5694 5696 5699 5700 5702 5703 5704 5704 5704 5703 5703 5702 5701 5701 5700 5701 5700 5700
5686 5685 5683 5682 5681 5679 5677 5674 5673 5674 5675 5675 5674 5674 5674 5674 5675 5676 5678 5681 5683 5686 5688 5691 5694 5696 5697 5699 5700 5701 5702 5702 5701 5700 5700 5700 5699 5698 5699 5698 5698 5697 5696
5684 5683 5682 5682 5680 5680 5678 5676 5675 5675 5675 5676 5677 5677 5677 5678 5679 5680 5680 5682 5684 5686 5688 5691 5694 5696 5697 5698 5699 5700 5700 5699 5699 5698 5697 5696 5697 5696 5696 5695 5694 5693 5691
5680 5681 5680 5680 5680 5679 5678 5677 5676 5676 5677 5677 5677 5678 5678 5679 5679 5681 5683 5684 5686 5688 5690 5692 5694 5695 5696 5697 5697 5698 5698 5698 5698 5697 5695 5694 5695 5694 5693 5691 5690 5688 5685
5676 5677 5677 5677 5679 5678 5679 5677 5677 5677 5677 5677 5678 5679 5679 5679 5680 5681 5684 5686 5687 5689 5690 5691 5693 5694 5694 5695 5695 5696 5696 5696 5696 5695 5695 5693 5692 5691 5690 5687 5684 5681 5677
5671 5673 5674 5675 5676 5677 5678 5678 5677 5678 5679 5679 5680 5680 5681 5682 5681 5682 5684 5685 5686 5688 5689 5690 5691 5692 5693 5693 5694 5695 5695 5695 5694 5693 5692 5689 5688 5686 5683 5680 5676 5673 5669
5665 5667 5669 5671 5672 5673 5674 5676 5678 5678 5679 5680 5680 5680 5680 5681 5682 5683 5684 5684 5685 5687 5688 5688 5689 5690 5691 5691 5692 5692 5692 5691 5690 5689 5687 5684 5682 5679 5676 5672 5668 5663 5659
5659 5662 5663 5665 5668 5668 5670 5672 5674 5676 5676 5677 5677 5678 5679 5680 5681 5682 5683 5683 5684 5685 5686 5686 5687 5688 5688 5688 5689 5688 5687 5686 5685 5683 5681 5679 5676 5673 5669 5664 5660 5655 5650
5652 5655 5657 5659 5662 5664 5665 5667 5669 5671 5673 5674 5674 5676 5677 5678 5679 5680 5681 5681 5682 5682 5683 5684 5684 5684 5684 5683 5683 5682 5682 5681 5679 5677 5675 5673 5670 5666 5662 5657 5652 5647 5642
5645 5648 5651 5653 5656 5658 5659 5661 5663 5665 5668 5669 5670 5671 5673 5674 5676 5676 5677 5678 5678 5678 5678 5678 5678 5678 5678 5678 5678 5678 5676 5675 5673 5671 5667 5664 5661 5658 5653 5649 5644 5639 5633
5636 5640 5643 5646 5649 5651 5653 5655 5657 5659 5662 5663 5664 5666 5667 5668 5670 5671 5672 5673 5673 5673 5673 5673 5673 5673 5673 5673 5673 5672 5670 5668 5665 5662 5659 5656 5652 5648 5644 5641 5635 5629 5622
5628 5631 5634 5638 5641 5643 5646 5648 5651 5653 5656 5659 5661 5661 5662 5663 5663 5664 5666 5667 5668 5669 5669 5670 5670 5670 5670 5668 5666 5664 5662 5660 5658 5655 5651 5648 5644 5641 5635 5631 5624 5616 5609
5617 5622 5625 5629 5632 5635 5638 5640 5643 5646 5649 5653 5655 5656 5657 5657 5658 5659 5660 5662 5663 5663 5663 5663 5663 5662 5661 5659 5658 5656 5655 5653 5650 5647 5644 5640 5635 5631 5626 5620 5613 5606 5598
5607 5613 5617 5619 5623 5626 5631 5634 5636 5638 5641 5644 5646 5648 5649 5650 5652 5652 5654 5655 5654 5655 5655 5655 5655 5654 5653 5652 5651 5650 5648 5645 5642 5639 5636 5632 5627 5622 5616 5609 5601 5594 5586
5596 5602 5607 5610 5614 5618 5622 5626 5629 5630 5633 5637 5639 5641 5642 5644 5645 5646 5646 5646 5647 5648 5647 5647 5646 5646 5645 5644 5643 5641 5639 5637 5634 5631 5626 5622 5617 5611 5604 5597 5589 5581 5573
5584 5591 5596 5601 5606 5610 5613 5617 5621 5623 5625 5628 5631 5634 5636 5637 5638 5639 5640 5640 5639 5639 5639 5639 5638 5637 5636 5635 5634 5633 5630 5626 5624 5620 5616 5612 5606 5600 5592 5584 5576 5569 5561
5573 5579 5585 5590 5596 5600 5604 5607 5610 5614 5617 5619 5622 5625 5626 5628 5630 5631 5632 5633 5632 5632 5631 5630 5629 5629 5627 5626 5625 5623 5620 5617 5614 5611 5607 5602 5595 5588 5580 5572 5565 5558 5551
5561 5567 5573 5578 5584 5588 5593 5596 5600 5603 5607 5609 5612 5614 5616 5619 5621 5621 5622 5623 5624 5623 5622 5622 5621 5620 5618 5616 5615 5613 5611 5606 5604 5600 5595 5590 5583 5576 5568 5560 5553 5546 5538
5552 5558 5563 5568 5572 5576 5581 5585 5589 5593 5596 5599 5601 5604 5607 5608 5610 5611 5612 5613 5613 5613 5612 5612 5611 5610 5608 5607 5605 5603 5600 5595 5592 5588 5583 5577 5571 5564 5557 5549 5542 5534 5526
5543 5548 5553 5557 5561 5565 5570 5574 5577 5581 5584 5586 5589 5592 5595 5597 5599 5600 5602 5602 5603 5603 5602 5601 5601 5599 5598 5597 5594 5592 5588 5584 5580 5576 5570 5564 5559 5552 5544 5537 5530 5522 5514
5531 5537 5542 5545 5549 5554 5558 5561 5566 5568 5571 5575 5578 5580 5583 5586 5588 5589 5591 5592 5591 5592 5591 5590 5589 5588 5587 5585 5583 5581 5577 5573 5568 5564 5558 5552 5546 5539 5532 5525 5518 5511 5504